Year,Month,Day,Hour,Minute,Value (Times are PST for temperature in C)
2009,07,30,00,00,24.40
2009,07,30,00,01,24.30
2009,07,30,00,02,24.30
2009,07,30,00,03,24.30
2009,07,30,00,04,24.30
2009,07,30,00,05,24.30
2009,07,30,00,06,24.30
2009,07,30,00,07,24.30
2009,07,30,00,08,24.20
2009,07,30,00,09,24.20
2009,07,30,00,10,24.20
2009,07,30,00,11,24.10
2009,07,30,00,12,24.10
2009,07,30,00,13,24.10
2009,07,30,00,14,24.10
2009,07,30,00,15,24.10
2009,07,30,00,16,24.10
2009,07,30,00,17,24.10
2009,07,30,00,18,24.00
2009,07,30,00,19,24.00
2009,07,30,00,20,24.00
2009,07,30,00,21,23.90
2009,07,30,00,22,23.90
2009,07,30,00,23,23.90
2009,07,30,00,24,23.90
2009,07,30,00,25,23.90
2009,07,30,00,26,23.90
2009,07,30,00,27,23.80
2009,07,30,00,28,23.80
2009,07,30,00,29,23.80
2009,07,30,00,30,23.80
2009,07,30,00,31,23.80
2009,07,30,00,32,23.70
2009,07,30,00,33,23.70
2009,07,30,00,34,23.70
2009,07,30,00,35,23.70
2009,07,30,00,36,23.70
2009,07,30,00,37,23.60
2009,07,30,00,38,23.60
2009,07,30,00,39,23.60
2009,07,30,00,40,23.60
2009,07,30,00,41,23.60
2009,07,30,00,42,23.60
2009,07,30,00,43,23.60
2009,07,30,00,44,23.60
2009,07,30,00,45,23.50
2009,07,30,00,46,23.50
2009,07,30,00,47,23.40
2009,07,30,00,48,23.40
2009,07,30,00,49,23.40
2009,07,30,00,50,23.40
2009,07,30,00,51,23.40
2009,07,30,00,52,23.40
2009,07,30,00,53,23.30
2009,07,30,00,54,23.30
2009,07,30,00,55,23.30
2009,07,30,00,56,23.30
2009,07,30,00,57,23.20
2009,07,30,00,58,23.20
2009,07,30,00,59,23.20
2009,07,30,01,00,23.10
2009,07,30,01,01,23.10
2009,07,30,01,02,23.10
2009,07,30,01,03,23.10
2009,07,30,01,04,23.10
2009,07,30,01,05,23.10
2009,07,30,01,06,23.10
2009,07,30,01,07,23.10
2009,07,30,01,08,23.00
2009,07,30,01,09,23.00
2009,07,30,01,10,23.00
2009,07,30,01,11,22.90
2009,07,30,01,12,22.90
2009,07,30,01,13,22.90
2009,07,30,01,14,22.90
2009,07,30,01,15,22.80
2009,07,30,01,16,22.80
2009,07,30,01,17,22.80
2009,07,30,01,18,22.70
2009,07,30,01,19,22.70
2009,07,30,01,20,22.70
2009,07,30,01,21,22.70
2009,07,30,01,22,22.60
2009,07,30,01,23,22.60
2009,07,30,01,24,22.60
2009,07,30,01,25,22.60
2009,07,30,01,26,22.50
2009,07,30,01,27,22.50
2009,07,30,01,28,22.40
2009,07,30,01,29,22.40
2009,07,30,01,30,22.40
2009,07,30,01,31,22.40
2009,07,30,01,32,22.30
2009,07,30,01,33,22.30
2009,07,30,01,34,22.30
2009,07,30,01,35,22.30
2009,07,30,01,36,22.30
2009,07,30,01,37,22.20
2009,07,30,01,38,22.20
2009,07,30,01,39,22.20
2009,07,30,01,40,22.20
2009,07,30,01,41,22.20
2009,07,30,01,42,22.20
2009,07,30,01,43,22.20
2009,07,30,01,44,22.20
2009,07,30,01,45,22.20
2009,07,30,01,46,22.20
2009,07,30,01,47,22.20
2009,07,30,01,48,22.20
2009,07,30,01,49,22.20
2009,07,30,01,50,22.20
2009,07,30,01,51,22.20
2009,07,30,01,52,22.20
2009,07,30,01,53,22.20
2009,07,30,01,54,22.20
2009,07,30,01,55,22.20
2009,07,30,01,56,22.20
2009,07,30,01,57,22.20
2009,07,30,01,58,22.20
2009,07,30,01,59,22.20
2009,07,30,02,00,22.20
2009,07,30,02,01,22.20
2009,07,30,02,02,22.20
2009,07,30,02,03,22.20
2009,07,30,02,04,22.20
2009,07,30,02,05,22.20
2009,07,30,02,06,22.20
2009,07,30,02,07,22.20
2009,07,30,02,08,22.10
2009,07,30,02,09,22.10
2009,07,30,02,10,22.10
2009,07,30,02,11,22.10
2009,07,30,02,12,22.10
2009,07,30,02,13,22.10
2009,07,30,02,14,22.10
2009,07,30,02,15,22.10
2009,07,30,02,16,22.10
2009,07,30,02,17,22.00
2009,07,30,02,18,22.00
2009,07,30,02,19,22.00
2009,07,30,02,20,22.00
2009,07,30,02,21,22.00
2009,07,30,02,22,21.90
2009,07,30,02,23,21.90
2009,07,30,02,24,21.90
2009,07,30,02,25,21.80
2009,07,30,02,26,21.80
2009,07,30,02,27,21.80
2009,07,30,02,28,21.80
2009,07,30,02,29,21.70
2009,07,30,02,30,21.70
2009,07,30,02,31,21.70
2009,07,30,02,32,21.70
2009,07,30,02,33,21.70
2009,07,30,02,34,21.70
2009,07,30,02,35,21.70
2009,07,30,02,36,21.70
2009,07,30,02,37,21.70
2009,07,30,02,38,21.70
2009,07,30,02,39,21.70
2009,07,30,02,40,21.70
2009,07,30,02,41,21.70
2009,07,30,02,42,21.70
2009,07,30,02,43,21.70
2009,07,30,02,44,21.60
2009,07,30,02,45,21.60
2009,07,30,02,46,21.60
2009,07,30,02,47,21.60
2009,07,30,02,48,21.60
2009,07,30,02,49,21.60
2009,07,30,02,50,21.60
2009,07,30,02,51,21.60
2009,07,30,02,52,21.60
2009,07,30,02,53,21.60
2009,07,30,02,54,21.50
2009,07,30,02,55,21.50
2009,07,30,02,56,21.50
2009,07,30,02,57,21.40
2009,07,30,02,58,21.40
2009,07,30,02,59,21.40
2009,07,30,03,00,21.40
2009,07,30,03,01,21.40
2009,07,30,03,02,21.40
2009,07,30,03,03,21.40
2009,07,30,03,04,21.40
2009,07,30,03,05,21.40
2009,07,30,03,06,21.40
2009,07,30,03,07,21.40
2009,07,30,03,08,21.40
2009,07,30,03,09,21.30
2009,07,30,03,10,21.30
2009,07,30,03,11,21.30
2009,07,30,03,12,21.30
2009,07,30,03,13,21.30
2009,07,30,03,14,21.30
2009,07,30,03,15,21.30
2009,07,30,03,16,21.30
2009,07,30,03,17,21.30
2009,07,30,03,18,21.30
2009,07,30,03,19,21.30
2009,07,30,03,20,21.30
2009,07,30,03,21,21.30
2009,07,30,03,22,21.30
2009,07,30,03,23,21.20
2009,07,30,03,24,21.20
2009,07,30,03,25,21.20
2009,07,30,03,26,21.20
2009,07,30,03,27,21.20
2009,07,30,03,28,21.20
2009,07,30,03,29,21.20
2009,07,30,03,30,21.20
2009,07,30,03,31,21.10
2009,07,30,03,32,21.10
2009,07,30,03,33,21.10
2009,07,30,03,34,21.10
2009,07,30,03,35,21.10
2009,07,30,03,36,21.10
2009,07,30,03,37,21.10
2009,07,30,03,38,21.00
2009,07,30,03,39,21.00
2009,07,30,03,40,21.00
2009,07,30,03,41,20.90
2009,07,30,03,42,20.90
2009,07,30,03,43,20.90
2009,07,30,03,44,20.90
2009,07,30,03,45,20.90
2009,07,30,03,46,20.90
2009,07,30,03,47,20.90
2009,07,30,03,48,20.90
2009,07,30,03,49,20.90
2009,07,30,03,50,20.80
2009,07,30,03,51,20.80
2009,07,30,03,52,20.80
2009,07,30,03,53,20.70
2009,07,30,03,54,20.70
2009,07,30,03,55,20.70
2009,07,30,03,56,20.70
2009,07,30,03,57,20.70
2009,07,30,03,58,20.60
2009,07,30,03,59,20.60
2009,07,30,04,00,20.60
2009,07,30,04,01,20.60
2009,07,30,04,02,20.60
2009,07,30,04,03,20.60
2009,07,30,04,04,20.60
2009,07,30,04,05,20.60
2009,07,30,04,06,20.60
2009,07,30,04,07,20.60
2009,07,30,04,08,20.60
2009,07,30,04,09,20.60
2009,07,30,04,10,20.60
2009,07,30,04,11,20.60
2009,07,30,04,12,20.70
2009,07,30,04,13,20.70
2009,07,30,04,14,20.70
2009,07,30,04,15,20.80
2009,07,30,04,16,20.90
2009,07,30,04,17,21.00
2009,07,30,04,18,21.00
2009,07,30,04,19,21.10
2009,07,30,04,20,21.10
2009,07,30,04,21,21.20
2009,07,30,04,22,21.10
2009,07,30,04,23,21.10
2009,07,30,04,24,21.10
2009,07,30,04,25,21.10
2009,07,30,04,26,21.00
2009,07,30,04,27,21.00
2009,07,30,04,28,21.00
2009,07,30,04,29,20.90
2009,07,30,04,30,20.90
2009,07,30,04,31,20.80
2009,07,30,04,32,20.80
2009,07,30,04,33,20.70
2009,07,30,04,34,20.70
2009,07,30,04,35,20.60
2009,07,30,04,36,20.60
2009,07,30,04,37,20.60
2009,07,30,04,38,20.60
2009,07,30,04,39,20.50
2009,07,30,04,40,20.50
2009,07,30,04,41,20.50
2009,07,30,04,42,20.50
2009,07,30,04,43,20.50
2009,07,30,04,44,20.50
2009,07,30,04,45,20.60
2009,07,30,04,46,20.60
2009,07,30,04,47,20.60
2009,07,30,04,48,20.60
2009,07,30,04,49,20.70
2009,07,30,04,50,20.70
2009,07,30,04,51,20.70
2009,07,30,04,52,20.70
2009,07,30,04,53,20.70
2009,07,30,04,54,20.70
2009,07,30,04,55,20.80
2009,07,30,04,56,20.80
2009,07,30,04,57,20.80
2009,07,30,04,58,20.80
2009,07,30,04,59,20.80
2009,07,30,05,00,20.80
2009,07,30,05,01,20.90
2009,07,30,05,02,20.90
2009,07,30,05,03,20.90
2009,07,30,05,04,20.90
2009,07,30,05,05,20.90
2009,07,30,05,06,21.00
2009,07,30,05,07,21.00
2009,07,30,05,08,21.10
2009,07,30,05,09,21.20
2009,07,30,05,10,21.20
2009,07,30,05,11,21.20
2009,07,30,05,12,21.30
2009,07,30,05,13,21.30
2009,07,30,05,14,21.30
2009,07,30,05,15,21.30
2009,07,30,05,16,21.30
2009,07,30,05,17,21.30
2009,07,30,05,18,21.30
2009,07,30,05,19,21.30
2009,07,30,05,20,21.30
2009,07,30,05,21,21.30
2009,07,30,05,22,21.30
2009,07,30,05,23,21.30
2009,07,30,05,24,21.30
2009,07,30,05,25,21.20
2009,07,30,05,26,21.20
2009,07,30,05,27,21.20
2009,07,30,05,28,21.10
2009,07,30,05,29,21.10
2009,07,30,05,30,21.10
2009,07,30,05,31,21.10
2009,07,30,05,32,21.10
2009,07,30,05,33,21.10
2009,07,30,05,34,21.00
2009,07,30,05,35,21.00
2009,07,30,05,36,21.00
2009,07,30,05,37,20.90
2009,07,30,05,38,20.90
2009,07,30,05,39,20.90
2009,07,30,05,40,20.90
2009,07,30,05,41,20.90
2009,07,30,05,42,20.90
2009,07,30,05,43,20.90
2009,07,30,05,44,20.80
2009,07,30,05,45,20.80
2009,07,30,05,46,20.80
2009,07,30,05,47,20.80
2009,07,30,05,48,20.80
2009,07,30,05,49,20.70
2009,07,30,05,50,20.70
2009,07,30,05,51,20.70
2009,07,30,05,52,20.70
2009,07,30,05,53,20.60
2009,07,30,05,54,20.60
2009,07,30,05,55,20.60
2009,07,30,05,56,20.60
2009,07,30,05,57,20.60
2009,07,30,05,58,20.60
2009,07,30,05,59,20.60
2009,07,30,06,00,20.50
2009,07,30,06,01,20.50
2009,07,30,06,02,20.50
2009,07,30,06,03,20.50
2009,07,30,06,04,20.50
2009,07,30,06,05,20.50
2009,07,30,06,06,20.40
2009,07,30,06,07,20.40
2009,07,30,06,08,20.40
2009,07,30,06,09,20.40
2009,07,30,06,10,20.50
2009,07,30,06,11,20.50
2009,07,30,06,12,20.50
2009,07,30,06,13,20.50
2009,07,30,06,14,20.60
2009,07,30,06,15,20.60
2009,07,30,06,16,20.60
2009,07,30,06,17,20.60
2009,07,30,06,18,20.60
2009,07,30,06,19,20.60
2009,07,30,06,20,20.70
2009,07,30,06,21,20.70
2009,07,30,06,22,20.70
2009,07,30,06,23,20.70
2009,07,30,06,24,20.70
2009,07,30,06,25,20.70
2009,07,30,06,26,20.70
2009,07,30,06,27,20.70
2009,07,30,06,28,20.70
2009,07,30,06,29,20.70
2009,07,30,06,30,20.70
2009,07,30,06,31,20.70
2009,07,30,06,32,20.70
2009,07,30,06,33,20.70
2009,07,30,06,34,20.70
2009,07,30,06,35,20.70
2009,07,30,06,36,20.70
2009,07,30,06,37,20.70
2009,07,30,06,38,20.70
2009,07,30,06,39,20.70
2009,07,30,06,40,20.70
2009,07,30,06,41,20.80
2009,07,30,06,42,20.80
2009,07,30,06,43,20.80
2009,07,30,06,44,20.80
2009,07,30,06,45,20.80
2009,07,30,06,46,20.80
2009,07,30,06,47,20.80
2009,07,30,06,48,20.90
2009,07,30,06,49,20.90
2009,07,30,06,50,21.00
2009,07,30,06,51,21.10
2009,07,30,06,52,21.10
2009,07,30,06,53,21.20
2009,07,30,06,54,21.20
2009,07,30,06,55,21.30
2009,07,30,06,56,21.30
2009,07,30,06,57,21.30
2009,07,30,06,58,21.40
2009,07,30,06,59,21.40
2009,07,30,07,00,21.40
2009,07,30,07,01,21.50
2009,07,30,07,02,21.50
2009,07,30,07,03,21.60
2009,07,30,07,04,21.60
2009,07,30,07,05,21.70
2009,07,30,07,06,21.70
2009,07,30,07,07,21.70
2009,07,30,07,08,21.80
2009,07,30,07,09,21.80
2009,07,30,07,10,21.80
2009,07,30,07,11,21.90
2009,07,30,07,12,22.00
2009,07,30,07,13,22.10
2009,07,30,07,14,22.10
2009,07,30,07,15,22.20
2009,07,30,07,16,22.20
2009,07,30,07,17,22.30
2009,07,30,07,18,22.30
2009,07,30,07,19,22.40
2009,07,30,07,20,22.40
2009,07,30,07,21,22.50
2009,07,30,07,22,22.60
2009,07,30,07,23,22.60
2009,07,30,07,24,22.70
2009,07,30,07,25,22.80
2009,07,30,07,26,22.80
2009,07,30,07,27,22.80
2009,07,30,07,28,22.90
2009,07,30,07,29,22.90
2009,07,30,07,30,22.90
2009,07,30,07,31,23.00
2009,07,30,07,32,23.00
2009,07,30,07,33,23.00
2009,07,30,07,34,23.00
2009,07,30,07,35,23.10
2009,07,30,07,36,23.10
2009,07,30,07,37,23.10
2009,07,30,07,38,23.20
2009,07,30,07,39,23.20
2009,07,30,07,40,23.30
2009,07,30,07,41,23.40
2009,07,30,07,42,23.60
2009,07,30,07,43,23.70
2009,07,30,07,44,23.80
2009,07,30,07,45,23.90
2009,07,30,07,46,24.10
2009,07,30,07,47,24.20
2009,07,30,07,48,24.30
2009,07,30,07,49,24.50
2009,07,30,07,50,24.70
2009,07,30,07,51,24.80
2009,07,30,07,52,24.80
2009,07,30,07,53,24.90
2009,07,30,07,54,25.00
2009,07,30,07,55,25.10
2009,07,30,07,56,25.20
2009,07,30,07,57,25.30
2009,07,30,07,58,25.40
2009,07,30,07,59,25.40
2009,07,30,08,00,25.50
2009,07,30,08,01,25.60
2009,07,30,08,02,25.60
2009,07,30,08,03,25.70
2009,07,30,08,04,25.80
2009,07,30,08,05,25.90
2009,07,30,08,06,25.90
2009,07,30,08,07,25.90
2009,07,30,08,08,25.90
2009,07,30,08,09,25.80
2009,07,30,08,10,25.70
2009,07,30,08,11,25.70
2009,07,30,08,12,25.60
2009,07,30,08,13,25.60
2009,07,30,08,14,25.50
2009,07,30,08,15,25.50
2009,07,30,08,16,25.40
2009,07,30,08,17,25.40
2009,07,30,08,18,25.40
2009,07,30,08,19,25.40
2009,07,30,08,20,25.30
2009,07,30,08,21,25.30
2009,07,30,08,22,25.20
2009,07,30,08,23,25.20
2009,07,30,08,24,25.10
2009,07,30,08,25,25.10
2009,07,30,08,26,25.10
2009,07,30,08,27,25.10
2009,07,30,08,28,25.10
2009,07,30,08,29,25.10
2009,07,30,08,30,25.10
2009,07,30,08,31,25.10
2009,07,30,08,32,25.10
2009,07,30,08,33,25.10
2009,07,30,08,34,25.00
2009,07,30,08,35,25.00
2009,07,30,08,36,25.00
2009,07,30,08,37,25.00
2009,07,30,08,38,25.00
2009,07,30,08,39,25.10
2009,07,30,08,40,25.10
2009,07,30,08,41,25.10
2009,07,30,08,42,25.10
2009,07,30,08,43,25.20
2009,07,30,08,44,25.20
2009,07,30,08,45,25.20
2009,07,30,08,46,25.30
2009,07,30,08,47,25.30
2009,07,30,08,48,25.40
2009,07,30,08,49,25.50
2009,07,30,08,50,25.60
2009,07,30,08,51,25.70
2009,07,30,08,52,25.80
2009,07,30,08,53,25.90
2009,07,30,08,54,26.00
2009,07,30,08,55,26.10
2009,07,30,08,56,26.20
2009,07,30,08,57,26.30
2009,07,30,08,58,26.30
2009,07,30,08,59,26.50
2009,07,30,09,00,26.60
2009,07,30,09,01,26.70
2009,07,30,09,02,26.80
2009,07,30,09,03,27.00
2009,07,30,09,04,27.10
2009,07,30,09,05,27.20
2009,07,30,09,06,27.30
2009,07,30,09,07,27.30
2009,07,30,09,08,27.40
2009,07,30,09,09,27.50
2009,07,30,09,10,27.50
2009,07,30,09,11,27.60
2009,07,30,09,12,27.60
2009,07,30,09,13,27.50
2009,07,30,09,14,27.50
2009,07,30,09,15,27.60
2009,07,30,09,16,27.60
2009,07,30,09,17,27.70
2009,07,30,09,18,27.80
2009,07,30,09,19,27.90
2009,07,30,09,20,28.00
2009,07,30,09,21,28.10
2009,07,30,09,22,28.10
2009,07,30,09,23,28.20
2009,07,30,09,24,28.20
2009,07,30,09,25,28.20
2009,07,30,09,26,28.30
2009,07,30,09,27,28.10
2009,07,30,09,28,27.90
2009,07,30,09,29,27.70
2009,07,30,09,30,27.50
2009,07,30,09,31,27.30
2009,07,30,09,32,27.10
2009,07,30,09,33,27.00
2009,07,30,09,34,26.90
2009,07,30,09,35,26.80
2009,07,30,09,36,26.70
2009,07,30,09,37,26.70
2009,07,30,09,38,26.60
2009,07,30,09,39,26.60
2009,07,30,09,40,26.60
2009,07,30,09,41,26.50
2009,07,30,09,42,26.50
2009,07,30,09,43,26.40
2009,07,30,09,44,26.40
2009,07,30,09,45,26.40
2009,07,30,09,46,26.50
2009,07,30,09,47,26.60
2009,07,30,09,48,26.60
2009,07,30,09,49,26.60
2009,07,30,09,50,26.70
2009,07,30,09,51,26.70
2009,07,30,09,52,26.80
2009,07,30,09,53,26.80
2009,07,30,09,54,26.80
2009,07,30,09,55,26.70
2009,07,30,09,56,26.50
2009,07,30,09,57,26.50
2009,07,30,09,58,26.40
2009,07,30,09,59,26.40
2009,07,30,10,00,26.30
2009,07,30,10,01,26.10
2009,07,30,10,02,26.00
2009,07,30,10,03,26.00
2009,07,30,10,04,25.90
2009,07,30,10,05,25.90
2009,07,30,10,06,25.90
2009,07,30,10,07,26.00
2009,07,30,10,08,26.00
2009,07,30,10,09,26.00
2009,07,30,10,10,26.00
2009,07,30,10,11,26.10
2009,07,30,10,12,26.20
2009,07,30,10,13,26.30
2009,07,30,10,14,26.40
2009,07,30,10,15,26.50
2009,07,30,10,16,26.70
2009,07,30,10,17,26.80
2009,07,30,10,18,26.80
2009,07,30,10,19,26.80
2009,07,30,10,20,27.00
2009,07,30,10,21,27.10
2009,07,30,10,22,27.10
2009,07,30,10,23,27.10
2009,07,30,10,24,27.00
2009,07,30,10,25,27.00
2009,07,30,10,26,26.90
2009,07,30,10,27,26.80
2009,07,30,10,28,26.70
2009,07,30,10,29,26.50
2009,07,30,10,30,26.40
2009,07,30,10,31,26.40
2009,07,30,10,32,26.40
2009,07,30,10,33,26.40
2009,07,30,10,34,26.20
2009,07,30,10,35,26.00
2009,07,30,10,36,25.90
2009,07,30,10,37,25.90
2009,07,30,10,38,25.90
2009,07,30,10,39,25.90
2009,07,30,10,40,25.90
2009,07,30,10,41,25.90
2009,07,30,10,42,25.90
2009,07,30,10,43,25.90
2009,07,30,10,44,25.90
2009,07,30,10,45,25.90
2009,07,30,10,46,25.90
2009,07,30,10,47,25.90
2009,07,30,10,48,25.80
2009,07,30,10,49,25.70
2009,07,30,10,50,25.70
2009,07,30,10,51,25.70
2009,07,30,10,52,25.70
2009,07,30,10,53,25.60
2009,07,30,10,54,25.70
2009,07,30,10,55,25.70
2009,07,30,10,56,25.70
2009,07,30,10,57,25.80
2009,07,30,10,58,25.90
2009,07,30,10,59,25.90
2009,07,30,11,00,25.90
2009,07,30,11,01,26.00
2009,07,30,11,02,26.10
2009,07,30,11,03,26.10
2009,07,30,11,04,26.00
2009,07,30,11,05,25.90
2009,07,30,11,06,25.90
2009,07,30,11,07,25.90
2009,07,30,11,08,25.90
2009,07,30,11,09,25.90
2009,07,30,11,10,25.90
2009,07,30,11,11,25.80
2009,07,30,11,12,25.80
2009,07,30,11,13,25.80
2009,07,30,11,14,25.70
2009,07,30,11,15,25.70
2009,07,30,11,16,25.60
2009,07,30,11,17,25.60
2009,07,30,11,18,25.60
2009,07,30,11,19,25.60
2009,07,30,11,20,25.70
2009,07,30,11,21,25.70
2009,07,30,11,22,25.80
2009,07,30,11,23,25.80
2009,07,30,11,24,25.90
2009,07,30,11,25,25.80
2009,07,30,11,26,25.70
2009,07,30,11,27,25.70
2009,07,30,11,28,25.80
2009,07,30,11,29,25.90
2009,07,30,11,30,25.90
2009,07,30,11,31,25.90
2009,07,30,11,32,26.00
2009,07,30,11,33,26.10
2009,07,30,11,34,26.30
2009,07,30,11,35,26.40
2009,07,30,11,36,26.60
2009,07,30,11,37,26.70
2009,07,30,11,38,26.80
2009,07,30,11,39,26.80
2009,07,30,11,40,26.90
2009,07,30,11,41,26.90
2009,07,30,11,42,26.90
2009,07,30,11,43,26.90
2009,07,30,11,44,26.90
2009,07,30,11,45,26.90
2009,07,30,11,46,27.00
2009,07,30,11,47,27.10
2009,07,30,11,48,27.30
2009,07,30,11,49,27.40
2009,07,30,11,50,27.50
2009,07,30,11,51,27.70
2009,07,30,11,52,27.80
2009,07,30,11,53,27.90
2009,07,30,11,54,28.10
2009,07,30,11,55,28.30
2009,07,30,11,56,28.40
2009,07,30,11,57,28.60
2009,07,30,11,58,28.90
2009,07,30,11,59,29.00
2009,07,30,12,00,29.20
2009,07,30,12,01,29.30
2009,07,30,12,02,29.30
2009,07,30,12,03,29.40
2009,07,30,12,04,29.50
2009,07,30,12,05,29.60
2009,07,30,12,06,29.70
2009,07,30,12,07,29.80
2009,07,30,12,08,29.80
2009,07,30,12,09,29.80
2009,07,30,12,10,29.80
2009,07,30,12,11,29.90
2009,07,30,12,12,29.90
2009,07,30,12,13,29.90
2009,07,30,12,14,30.00
2009,07,30,12,15,30.00
2009,07,30,12,16,30.10
2009,07,30,12,17,30.20
2009,07,30,12,18,30.30
2009,07,30,12,19,30.20
2009,07,30,12,20,30.20
2009,07,30,12,21,30.20
2009,07,30,12,22,30.30
2009,07,30,12,23,30.40
2009,07,30,12,24,30.50
2009,07,30,12,25,30.60
2009,07,30,12,26,30.70
2009,07,30,12,27,30.80
2009,07,30,12,28,30.80
2009,07,30,12,29,30.90
2009,07,30,12,30,30.90
2009,07,30,12,31,31.00
2009,07,30,12,32,31.10
2009,07,30,12,33,31.10
2009,07,30,12,34,31.10
2009,07,30,12,35,31.20
2009,07,30,12,36,31.20
2009,07,30,12,37,31.10
2009,07,30,12,38,31.10
2009,07,30,12,39,31.10
2009,07,30,12,40,31.10
2009,07,30,12,41,30.90
2009,07,30,12,42,30.70
2009,07,30,12,43,30.60
2009,07,30,12,44,30.60
2009,07,30,12,45,30.50
2009,07,30,12,46,30.40
2009,07,30,12,47,30.40
2009,07,30,12,48,30.30
2009,07,30,12,49,30.20
2009,07,30,12,50,30.00
2009,07,30,12,51,29.90
2009,07,30,12,52,29.90
2009,07,30,12,53,30.00
2009,07,30,12,54,30.10
2009,07,30,12,55,30.20
2009,07,30,12,56,30.30
2009,07,30,12,57,30.40
2009,07,30,12,58,30.60
2009,07,30,12,59,30.70
2009,07,30,13,00,30.80
2009,07,30,13,01,30.70
2009,07,30,13,02,30.70
2009,07,30,13,03,30.60
2009,07,30,13,04,30.60
2009,07,30,13,05,30.50
2009,07,30,13,06,30.40
2009,07,30,13,07,30.50
2009,07,30,13,08,30.50
2009,07,30,13,09,30.60
2009,07,30,13,10,30.50
2009,07,30,13,11,30.50
2009,07,30,13,12,30.40
2009,07,30,13,13,30.40
2009,07,30,13,14,30.50
2009,07,30,13,15,30.60
2009,07,30,13,16,30.60
2009,07,30,13,17,30.70
2009,07,30,13,18,30.70
2009,07,30,13,19,30.80
2009,07,30,13,20,31.00
2009,07,30,13,21,31.10
2009,07,30,13,22,31.10
2009,07,30,13,23,31.10
2009,07,30,13,24,31.10
2009,07,30,13,25,31.00
2009,07,30,13,26,30.90
2009,07,30,13,27,30.90
2009,07,30,13,28,30.90
2009,07,30,13,29,31.00
2009,07,30,13,30,31.00
2009,07,30,13,31,31.00
2009,07,30,13,32,31.00
2009,07,30,13,33,30.90
2009,07,30,13,34,30.80
2009,07,30,13,35,30.80
2009,07,30,13,36,30.70
2009,07,30,13,37,30.70
2009,07,30,13,38,30.70
2009,07,30,13,39,30.70
2009,07,30,13,40,30.60
2009,07,30,13,41,30.60
2009,07,30,13,42,30.60
2009,07,30,13,43,30.50
2009,07,30,13,44,30.40
2009,07,30,13,45,30.40
2009,07,30,13,46,30.30
2009,07,30,13,47,30.30
2009,07,30,13,48,30.30
2009,07,30,13,49,30.30
2009,07,30,13,50,30.30
2009,07,30,13,51,30.30
2009,07,30,13,52,30.30
2009,07,30,13,53,30.30
2009,07,30,13,54,30.30
2009,07,30,13,55,30.30
2009,07,30,13,56,30.40
2009,07,30,13,57,30.40
2009,07,30,13,58,30.30
2009,07,30,13,59,30.20
2009,07,30,14,00,30.20
2009,07,30,14,01,30.30
2009,07,30,14,02,30.30
2009,07,30,14,03,30.40
2009,07,30,14,04,30.50
2009,07,30,14,05,30.60
2009,07,30,14,06,30.60
2009,07,30,14,07,30.70
2009,07,30,14,08,30.80
2009,07,30,14,09,30.80
2009,07,30,14,10,30.80
2009,07,30,14,11,30.80
2009,07,30,14,12,30.90
2009,07,30,14,13,30.90
2009,07,30,14,14,30.80
2009,07,30,14,15,30.80
2009,07,30,14,16,30.80
2009,07,30,14,17,30.80
2009,07,30,14,18,30.80
2009,07,30,14,19,30.80
2009,07,30,14,20,30.80
2009,07,30,14,21,30.90
2009,07,30,14,22,30.90
2009,07,30,14,23,31.00
2009,07,30,14,24,31.00
2009,07,30,14,25,30.90
2009,07,30,14,26,30.90
2009,07,30,14,27,30.80
2009,07,30,14,28,30.70
2009,07,30,14,29,30.70
2009,07,30,14,30,30.70
2009,07,30,14,31,30.80
2009,07,30,14,32,30.80
2009,07,30,14,33,30.90
2009,07,30,14,34,30.90
2009,07,30,14,35,31.00
2009,07,30,14,36,31.10
2009,07,30,14,37,31.20
2009,07,30,14,38,31.20
2009,07,30,14,39,31.40
2009,07,30,14,40,31.50
2009,07,30,14,41,31.50
2009,07,30,14,42,31.40
2009,07,30,14,43,31.40
2009,07,30,14,44,31.30
2009,07,30,14,45,31.30
2009,07,30,14,46,31.30
2009,07,30,14,47,31.30
2009,07,30,14,48,31.30
2009,07,30,14,49,31.20
2009,07,30,14,50,31.30
2009,07,30,14,51,31.30
2009,07,30,14,52,31.30
2009,07,30,14,53,31.30
2009,07,30,14,54,31.30
2009,07,30,14,55,31.40
2009,07,30,14,56,31.60
2009,07,30,14,57,31.70
2009,07,30,14,58,31.90
2009,07,30,14,59,32.00
2009,07,30,15,00,32.10
2009,07,30,15,01,32.10
2009,07,30,15,02,32.00
2009,07,30,15,03,32.10
2009,07,30,15,04,32.10
2009,07,30,15,05,32.10
2009,07,30,15,06,32.20
2009,07,30,15,07,32.20
2009,07,30,15,08,32.00
2009,07,30,15,09,31.70
2009,07,30,15,10,31.50
2009,07,30,15,11,31.20
2009,07,30,15,12,31.10
2009,07,30,15,13,31.00
2009,07,30,15,14,30.80
2009,07,30,15,15,30.60
2009,07,30,15,16,30.50
2009,07,30,15,17,30.40
2009,07,30,15,18,30.30
2009,07,30,15,19,30.30
2009,07,30,15,20,30.20
2009,07,30,15,21,30.10
2009,07,30,15,22,29.90
2009,07,30,15,23,29.90
2009,07,30,15,24,29.80
2009,07,30,15,25,29.80
2009,07,30,15,26,29.70
2009,07,30,15,27,29.60
2009,07,30,15,28,29.50
2009,07,30,15,29,29.40
2009,07,30,15,30,29.40
2009,07,30,15,31,29.40
2009,07,30,15,32,29.50
2009,07,30,15,33,29.50
2009,07,30,15,34,29.60
2009,07,30,15,35,29.70
2009,07,30,15,36,29.80
2009,07,30,15,37,30.00
2009,07,30,15,38,30.20
2009,07,30,15,39,30.30
2009,07,30,15,40,30.30
2009,07,30,15,41,30.40
2009,07,30,15,42,30.40
2009,07,30,15,43,30.40
2009,07,30,15,44,30.30
2009,07,30,15,45,30.20
2009,07,30,15,46,30.00
2009,07,30,15,47,30.00
2009,07,30,15,48,30.00
2009,07,30,15,49,30.00
2009,07,30,15,50,30.10
2009,07,30,15,51,30.00
2009,07,30,15,52,29.90
2009,07,30,15,53,30.00
2009,07,30,15,54,30.00
2009,07,30,15,55,29.90
2009,07,30,15,56,29.80
2009,07,30,15,57,29.60
2009,07,30,15,58,29.60
2009,07,30,15,59,29.60
2009,07,30,16,00,29.50
2009,07,30,16,01,29.40
2009,07,30,16,02,29.40
2009,07,30,16,03,29.40
2009,07,30,16,04,29.50
2009,07,30,16,05,29.50
2009,07,30,16,06,29.60
2009,07,30,16,07,29.50
2009,07,30,16,08,29.50
2009,07,30,16,09,29.40
2009,07,30,16,10,29.30
2009,07,30,16,11,29.30
2009,07,30,16,12,29.20
2009,07,30,16,13,29.10
2009,07,30,16,14,29.10
2009,07,30,16,15,29.00
2009,07,30,16,16,28.90
2009,07,30,16,17,28.90
2009,07,30,16,18,29.00
2009,07,30,16,19,29.10
2009,07,30,16,20,29.20
2009,07,30,16,21,29.20
2009,07,30,16,22,29.20
2009,07,30,16,23,29.00
2009,07,30,16,24,28.90
2009,07,30,16,25,28.90
2009,07,30,16,26,29.00
2009,07,30,16,27,29.20
2009,07,30,16,28,29.30
2009,07,30,16,29,29.30
2009,07,30,16,30,29.40
2009,07,30,16,31,29.40
2009,07,30,16,32,29.30
2009,07,30,16,33,29.30
2009,07,30,16,34,29.30
2009,07,30,16,35,29.30
2009,07,30,16,36,29.40
2009,07,30,16,37,29.50
2009,07,30,16,38,29.50
2009,07,30,16,39,29.60
2009,07,30,16,40,29.60
2009,07,30,16,41,29.70
2009,07,30,16,42,29.70
2009,07,30,16,43,29.80
2009,07,30,16,44,29.80
2009,07,30,16,45,29.70
2009,07,30,16,46,29.60
2009,07,30,16,47,29.40
2009,07,30,16,48,29.20
2009,07,30,16,49,29.00
2009,07,30,16,50,28.80
2009,07,30,16,51,28.70
2009,07,30,16,52,28.70
2009,07,30,16,53,28.60
2009,07,30,16,54,28.60
2009,07,30,16,55,28.60
2009,07,30,16,56,28.70
2009,07,30,16,57,28.70
2009,07,30,16,58,28.80
2009,07,30,16,59,29.00
2009,07,30,17,00,29.00
2009,07,30,17,01,29.10
2009,07,30,17,02,29.10
2009,07,30,17,03,29.10
2009,07,30,17,04,29.10
2009,07,30,17,05,29.00
2009,07,30,17,06,28.90
2009,07,30,17,07,29.00
2009,07,30,17,08,29.00
2009,07,30,17,09,29.10
2009,07,30,17,10,29.20
2009,07,30,17,11,29.30
2009,07,30,17,12,29.40
2009,07,30,17,13,29.50
2009,07,30,17,14,29.40
2009,07,30,17,15,29.40
2009,07,30,17,16,29.30
2009,07,30,17,17,29.20
2009,07,30,17,18,28.90
2009,07,30,17,19,28.80